| time (UTC) | temp F | wind direction | speed MPH | gust MPH | rain 1hr in | rain 24hr in | rain mn in | humidity % | barometer mb |
| 20260504081547 | 45 | 0 | 0.0 | 0.0 | 0.00 | 0.00 | 0.00 | 66 | 1012.1 |
| 20260504044546 | 45 | 0 | 0.0 | 0.0 | 0.00 | 0.00 | 0.00 | 63 | 1011.5 |
| 20260504043043 | 45 | 0 | 0.0 | 0.0 | 0.00 | 0.00 | 0.00 | 63 | 1011.5 |
| 20260504041541 | 45 | 0 | 0.0 | 0.0 | 0.00 | 0.00 | 0.00 | 63 | 1011.2 |
| 20260504040059 | 45 | 0 | 0.0 | 0.0 | 0.00 | 0.00 | 0.00 | 63 | 1011.2 |
| 20260504034609 | 45 | 0 | 0.0 | 0.0 | 0.00 | 0.00 | 0.00 | 63 | 1011.3 |
| 20260504033041 | 44 | 0 | 0.0 | 0.0 | 0.00 | 0.00 | 0.00 | 64 | 1011.3 |
| 20260504031549 | 44 | 0 | 0.0 | 0.0 | 0.00 | 0.00 | 0.00 | 63 | 1011.4 |
| 20260504030058 | 45 | 0 | 0.0 | 0.0 | 0.00 | 0.00 | 0.00 | 62 | 1011.3 |
| 20260504024549 | 46 | 0 | 0.0 | 0.0 | 0.00 | 0.00 | 0.00 | 61 | 1011.4 |
| 20260504023044 | 47 | 0 | 0.0 | 0.0 | 0.00 | 0.00 | 0.00 | 61 | 1011.5 |
| 20260504021548 | 46 | 0 | 0.0 | 0.0 | 0.00 | 0.00 | 0.00 | 61 | 1011.5 |
| 20260504020051 | 45 | 0 | 0.0 | 0.0 | 0.00 | 0.00 | 0.00 | 59 | 1011.4 |
| 20260504014542 | 46 | 0 | 0.0 | 0.0 | 0.00 | 0.00 | 0.00 | 58 | 1011.3 |
| 20260504013048 | 46 | 0 | 0.0 | 0.0 | 0.00 | 0.00 | 0.00 | 57 | 1011.2 |
| 20260504011543 | 47 | 0 | 0.0 | 0.0 | 0.00 | 0.00 | 0.00 | 54 | 1011.2 |
| 20260504010043 | 48 | 0 | 0.0 | 0.0 | 0.00 | 0.00 | 0.00 | 53 | 1010.8 |
| 20260504004540 | 49 | 0 | 0.0 | 0.0 | 0.00 | 0.00 | 0.00 | 50 | 1010.7 |
| 20260504003048 | 50 | 0 | 0.0 | 0.0 | 0.00 | 0.00 | 0.00 | 47 | 1010.4 |
| 20260504001600 | 51 | 0 | 0.0 | 0.0 | 0.00 | 0.00 | 0.00 | 46 | 1010.2 |
| 20260504000059 | 53 | 0 | 0.0 | 0.0 | 0.00 | 0.00 | 0.00 | 43 | 1010.1 |
| 20260503234544 | 54 | 0 | 0.0 | 0.0 | 0.00 | 0.00 | 0.00 | 41 | 1009.9 |
| 20260503233049 | 55 | 0 | 0.0 | 1.0 | 0.00 | 0.00 | 0.00 | 39 | 1009.8 |
| 20260503231548 | 56 | 0 | 0.0 | 2.0 | 0.00 | 0.00 | 0.00 | 38 | 1009.6 |
| 20260503230042 | 56 | 0 | 0.0 | 6.0 | 0.00 | 0.00 | 0.00 | 38 | 1009.4 |
| 20260503224548 | 56 | 0 | 1.0 | 5.0 | 0.00 | 0.00 | 0.00 | 34 | 1009.4 |
| 20260503223044 | 57 | 144 | 0.0 | 3.0 | 0.00 | 0.00 | 0.00 | 34 | 1009.3 |
| 20260503221547 | 56 | 129 | 1.0 | 3.0 | 0.00 | 0.00 | 0.00 | 33 | 1009.3 |
| 20260503220053 | 56 | 0 | 0.0 | 9.0 | 0.00 | 0.00 | 0.00 | 34 | 1009.3 |
| 20260503214559 | 56 | 0 | 0.0 | 4.0 | 0.00 | 0.00 | 0.00 | 37 | 1009.2 |
| 20260503213048 | 56 | 161 | 0.0 | 4.0 | 0.00 | 0.00 | 0.00 | 35 | 1009.2 |
| 20260503211553 | 56 | 141 | 1.0 | 7.0 | 0.00 | 0.00 | 0.00 | 32 | 1009.2 |
| 20260503210044 | 56 | 128 | 1.0 | 4.0 | 0.00 | 0.00 | 0.00 | 31 | 1009.2 |
| 20260503204557 | 56 | 136 | 1.0 | 7.0 | 0.00 | 0.00 | 0.00 | 32 | 1009.1 |
| 20260503203051 | 57 | 131 | 1.0 | 5.0 | 0.00 | 0.00 | 0.00 | 32 | 1009.2 |
| 20260503201545 | 55 | 150 | 1.0 | 4.0 | 0.00 | 0.00 | 0.00 | 33 | 1009.2 |
| 20260503200048 | 56 | 133 | 1.0 | 5.0 | 0.00 | 0.00 | 0.00 | 35 | 1009.2 |
| 20260503194546 | 55 | 150 | 0.0 | 6.0 | 0.00 | 0.00 | 0.00 | 35 | 1009.4 |
| 20260503193107 | 55 | 160 | 1.0 | 3.0 | 0.00 | 0.00 | 0.00 | 34 | 1009.7 |
| 20260503191553 | 56 | 155 | 1.0 | 6.0 | 0.00 | 0.00 | 0.00 | 36 | 1009.7 |
| 20260503190105 | 55 | 147 | 1.0 | 4.0 | 0.00 | 0.00 | 0.00 | 36 | 1009.7 |
| 20260503184545 | 55 | 64 | 2.0 | 4.0 | 0.00 | 0.00 | 0.00 | 36 | 1009.7 |
| 20260503183101 | 55 | 158 | 2.0 | 6.0 | 0.00 | 0.00 | 0.00 | 37 | 1009.8 |
| 20260503181548 | 55 | 144 | 1.0 | 3.0 | 0.00 | 0.00 | 0.00 | 39 | 1009.9 |
| 20260503180055 | 53 | 159 | 1.0 | 4.0 | 0.00 | 0.00 | 0.00 | 40 | 1010.0 |
| 20260503174540 | 53 | 134 | 2.0 | 7.0 | 0.00 | 0.00 | 0.00 | 40 | 1010.2 |
| 20260503173105 | 52 | 103 | 2.0 | 6.0 | 0.00 | 0.00 | 0.00 | 46 | 1010.1 |
| 20260503171553 | 50 | 161 | 1.0 | 6.0 | 0.00 | 0.00 | 0.00 | 43 | 1010.4 |